1337644829314,20.9191
1337644889314,20.9577
1337644949314,20.9341
1337645009314,20.8486
1337645069314,20.9379
1337645129314,20.8782
1337645189314,20.8968
1337645249314,20.8662
1337645309314,20.9356
1337645369314,20.9679
1337645429314,20.8947
1337645489314,20.8553
1337645549314,20.8555
1337645609314,20.8919
1337645669314,20.8946
1337645729314,20.9201
1337645789314,20.8705
1337645849314,20.9451
1337645909314,20.9238
1337645969314,20.9640
1337646029314,20.9830
1337646089314,20.9132
1337646149314,21.0045
1337646209314,20.9775
1337646269314,20.9084
1337646329314,20.9231
1337646389314,20.9424
1337646449314,20.9154
1337646509314,20.9724
1337646569314,20.9490
1337646629314,20.9966
1337646689314,20.9629
1337646749314,20.9784
1337646809314,20.9138
1337646869314,20.9055
1337646929314,20.8998
1337646989314,20.9253
1337647049314,20.9431
1337647109314,20.9119
1337647169314,20.9165
1337647229314,20.9512
1337647289314,20.9464
1337647349314,20.8944
1337647409314,20.9334
1337647469314,20.9221
1337647529314,20.9117
1337647589314,20.9491
1337647649314,20.9914
1337647709314,20.9935
1337647769314,20.9649
1337647829314,20.9260
1337647889314,20.9663
1337647949314,20.9192
1337648009314,20.9515
1337648069314,20.8426
1337648129314,20.9039
1337648189314,20.8673
1337648249314,20.8323
1337648309314,20.8359
1337648369314,20.8302
1337648429325,20.8945
1337648489325,20.8356
1337648549325,20.9391
1337648609325,20.9273
1337648669325,20.9156
1337648729325,20.9040
1337648789325,20.9183
1337648849325,20.9507
1337648909325,20.9158
1337648969325,20.8948
1337649029325,20.8406
1337649089325,20.8375
1337649149325,20.8351
1337649209325,20.8710
1337649269325,20.8655
1337649329325,20.8421
1337649389325,20.9034
1337649449325,20.9286
1337649509325,20.8873
1337649569325,20.9266
1337649629325,20.9175
1337649689325,20.9572
1337649749325,20.8661
1337649809325,20.8676
1337649869325,20.8910
1337649929325,20.8845
1337649989325,20.8926
1337650049325,20.8733
1337650109325,20.8397
1337650169325,20.8329
1337650229325,20.8766
1337650289325,20.8957
1337650349325,20.8245
1337650409325,20.8756
1337650469325,20.8676
1337650529325,20.9067
1337650589325,20.8541
1337650649325,20.8735
1337650709325,20.9014
1337650769325,20.9092
1337650829325,20.8522
1337650889325,20.8459
1337650949325,20.8645
1337651009325,20.8378
1337651069325,20.8377
1337651129325,20.8429
1337651189325,20.8759
1337651249325,20.8805
1337651309325,20.9220
1337651369325,20.8705
1337651429325,20.8746
1337651489325,20.8207
1337651549325,20.8947
1337651609325,20.9254
1337651669325,20.9450
1337651729325,20.8822
1337651789325,20.8854
1337651849325,20.9017
1337651909325,20.8895
1337651969325,20.8941
1337652029336,20.9167
1337652089336,20.9413
1337652149336,20.9115
1337652209336,20.9541
1337652269336,21.0559
1337652329336,20.9903
1337652389336,21.0252
1337652449336,21.0698
1337652509336,21.0394
1337652569336,21.0455
1337652629336,21.0446
1337652689336,21.0463
1337652749336,21.0135
1337652809336,21.0502
1337652869336,21.0581
1337652929336,20.9467
1337652989336,21.0790
1337653049336,20.9960
1337653109336,20.9787
1337653169336,20.9539
1337653229336,21.0043
1337653289336,21.0155
1337653349336,21.0322
1337653409336,21.0349
1337653469336,20.9476
1337653529336,21.0309
1337653589336,21.0074
1337653649336,21.0257
1337653709336,21.0495
1337653769336,20.9984
1337653829336,20.9781
1337653889336,21.0395
1337653949336,21.0335
1337654009336,21.0081
1337654069336,20.9555
1337654129336,20.9355
1337654189336,21.0585
1337654249336,20.9482
1337654309336,20.9725
1337654369336,21.0336
1337654429336,20.9838
1337654489336,21.0204
1337654549336,21.0000
1337654609336,20.9984
1337654669336,20.9952
1337654729336,20.9372
1337654789336,20.9480
1337654849336,20.9732
1337654909336,20.9732
1337654969336,20.9614
1337655029336,21.0548
1337655089336,21.0123
1337655149336,20.9985
1337655209336,20.9594
1337655269336,20.9534
1337655329336,21.0397
1337655389336,21.0143
1337655449336,21.0615
1337655509336,20.9750
1337655569336,20.9392
1337655629346,21.0163
1337655689346,20.9628
1337655749346,20.9798
1337655809346,21.0215
1337655869346,21.0177
1337655929346,20.9934
1337655989346,20.9626
1337656049346,20.9376
1337656109346,21.0268
1337656169346,21.0077
1337656229346,20.9962
1337656289346,21.0023
1337656349346,20.9501
1337656409346,20.9630
1337656469346,20.9825
1337656529346,20.9448
1337656589346,20.9577
1337656649346,20.9645
1337656709346,20.9522
1337656769346,20.9524
1337656829346,20.9654
1337656889346,20.9124
1337656949346,20.9757
1337657009346,20.8961
1337657069346,20.9241
1337657129346,20.9540
1337657189346,20.9087
1337657249346,20.8899
1337657309346,20.9566
1337657369346,20.8810
1337657429346,20.9461
1337657489346,20.9444
1337657549346,20.9508
1337657609346,20.9958
1337657669346,20.9650
1337657729346,20.9617
1337657789346,20.8947
1337657849346,20.8993
1337657909346,20.9734
1337657969346,20.9513
1337658029346,20.9899
1337658089346,20.9951
1337658149346,20.9663
1337658209346,20.9405
1337658269346,20.9120
1337658329346,20.9845
1337658389346,20.9701
1337658449346,20.9305
1337658509346,20.9376
1337658569346,20.9246
1337658629346,20.8796
1337658689346,20.9112
1337658749346,20.8973
1337658809346,20.9236
1337658869346,20.8891
1337658929346,20.9393
1337658989346,20.8792
1337659049346,20.9464
1337659109346,20.8824
1337659169346,20.8862
1337659229356,20.8430
1337659289356,20.8567
1337659349356,20.9333
1337659409356,20.9154
1337659469356,20.9100
1337659529356,20.8641
1337659589356,20.9087
1337659649356,20.8783
1337659709356,20.8785
1337659769356,20.9462
1337659829356,20.8773
1337659889356,20.8948
1337659949356,20.8742
1337660009356,20.9011
1337660069356,20.8530
1337660129356,20.8677
1337660189356,20.9301
1337660249356,20.8715
1337660309356,20.8572
1337660369356,20.8912
1337660429356,20.8905
1337660489356,20.8966
1337660549356,20.8632
1337660609356,20.9331
1337660669356,20.9062
1337660729356,20.8760
1337660789356,20.9146
1337660849356,20.9085
1337660909356,20.8364
1337660969356,20.8663
1337661029356,20.9012
1337661089356,20.8227
1337661149356,20.8511
1337661209356,20.8923
1337661269356,20.8987
1337661329356,20.8223
1337661389356,20.8604
1337661449356,20.7997
1337661509356,20.8545
1337661569356,20.8490
1337661629356,20.8259
1337661689356,20.8926
1337661749356,20.9481
1337661809356,20.8633
1337661869356,20.9077
1337661929356,20.9199
1337661989356,20.9057
1337662049356,20.9244
1337662109356,20.9202
1337662169356,20.9828
1337662229356,20.9310
1337662289356,20.8202
1337662349356,20.8751
1337662409356,20.8923
1337662469356,20.8779
1337662529356,20.8842
1337662589356,20.8704
1337662649356,20.8640
1337662709356,20.8276
1337662769356,20.8427
1337662829366,20.9700
1337662889366,21.0652
1337662949366,20.9745
1337663009366,20.9318
1337663069366,20.9495
1337663129366,20.8767
1337663189366,20.8784
1337663249366,20.8957
1337663309366,20.8815
1337663369366,20.8838
1337663429366,20.8648
1337663489366,20.8271
1337663549366,20.7853
1337663609366,20.8310
1337663669366,20.8185
1337663729366,20.8246
1337663789366,20.8199
1337663849366,20.8500
1337663909366,20.8303
1337663969366,20.8398
1337664029366,20.7989
1337664089366,20.8505
1337664149366,20.8100
1337664209366,20.8562
1337664269366,20.8396
1337664329366,20.8272
1337664389366,20.8716
1337664449366,20.8465
1337664509366,20.9369
1337664569366,20.8953
1337664629366,20.8920
1337664689366,20.9178
1337664749366,20.8267
1337664809366,20.8806
1337664869366,20.8774
1337664929366,20.8534
1337664989366,20.8915
1337665049366,20.8429
1337665109366,20.9485
1337665169366,20.8827
1337665229366,20.8457
1337665289366,20.8774
1337665349366,20.8806
1337665409366,20.8923
1337665469366,20.9249
1337665529366,20.9396
1337665589366,20.8511
1337665649366,20.9331
1337665709366,20.8796
1337665769366,20.9269
1337665829366,20.8575
1337665889366,20.8633
1337665949366,20.8638
1337666009366,20.7730
1337666069366,20.8543
1337666129366,20.8678
1337666189366,20.8044
1337666249366,20.7940
1337666309366,20.8248
1337666369366,20.9082
1337666429376,20.8437
1337666489376,20.8443
1337666549376,20.8566
1337666609376,20.8235
1337666669376,20.8625
1337666729376,20.8244
1337666789376,20.8446
1337666849376,20.8653
1337666909376,20.8528
1337666969376,20.9218
1337667029376,20.8760
1337667089376,20.8658
1337667149376,20.9236
1337667209376,20.8957
1337667269376,20.8675
1337667329376,20.9105
1337667389376,20.8769
1337667449376,20.9049
1337667509376,20.8760
1337667569376,20.8765
1337667629376,20.8896
1337667689376,20.8438
1337667749376,20.8425
1337667809376,20.8359
1337667869376,20.8144
1337667929376,20.8657
1337667989376,20.8939
1337668049376,20.9421
1337668109376,20.8839
1337668169376,20.8550
1337668229376,20.8905
1337668289376,20.9022
1337668349376,20.9405
1337668409376,20.8844
1337668469376,20.8666
1337668529376,20.8961
1337668589376,20.8760
1337668649376,20.8861
1337668709376,20.8365
1337668769376,20.8849
1337668829376,20.8741
1337668889376,20.8832
1337668949376,20.8561
1337669009376,20.8856
1337669069376,20.8133
1337669129376,20.8567
1337669189376,20.8637
1337669249376,20.8751
1337669309376,20.8441
1337669369376,20.8382
1337669429376,20.7800
1337669489376,20.8528
1337669549376,20.8085
1337669609376,20.8331
1337669669376,20.8272
1337669729376,20.8484
1337669789376,20.8072
1337669849376,20.7981
1337669909376,20.8002
1337669969376,20.7977
1337670029386,20.8636
1337670089386,20.8448
1337670149386,20.8565
1337670209386,20.8699
1337670269386,20.9033
1337670329386,20.8099
1337670389386,20.8374
1337670449386,20.9165
1337670509386,20.8218
1337670569386,20.8879
1337670629386,20.8979
1337670689386,20.8847
1337670749386,20.8842
1337670809386,20.8746
1337670869386,20.8749
1337670929386,20.8557
1337670989386,20.8470
1337671049386,20.8463
1337671109386,20.8587
1337671169386,20.8202
1337671229386,20.7747
1337671289386,20.8014
1337671349386,20.8207
1337671409386,20.7949
1337671469386,20.8296
1337671529386,20.8611
1337671589386,20.8265
1337671649386,20.8281
1337671709386,20.8709
1337671769386,20.7686
1337671829386,20.7977
1337671889386,20.7957
1337671949386,20.7805
1337672009386,20.7642
1337672069386,20.8123
1337672129386,20.8296
1337672189386,20.7959
1337672249386,20.8936
1337672309386,20.8707
1337672369386,20.8438
1337672429386,20.7603
1337672489386,20.7737
1337672549386,20.7814
1337672609386,20.7590
1337672669386,20.7809
1337672729386,20.7636
1337672789386,20.7707
1337672849386,20.7823
1337672909386,20.7921
1337672969386,20.7703
1337673029386,20.8327
1337673089386,20.8326
1337673149386,20.8477
1337673209386,20.8019
1337673269386,20.8330
1337673329386,20.8191
1337673389386,20.8565
1337673449386,20.8617
1337673509386,20.8154
1337673569386,20.8122
1337673629396,20.8301
1337673689396,20.8210
1337673749396,20.8154
1337673809396,20.8535
1337673869396,20.8561
1337673929396,20.8085
1337673989396,20.8376
1337674049396,20.8583
1337674109396,20.7500
1337674169396,20.8325
1337674229396,20.9008
1337674289396,20.8390
1337674349396,20.7981
1337674409396,20.8270
1337674469396,20.8001
1337674529396,20.8653
1337674589396,20.8369
1337674649396,20.8235
1337674709396,20.7907
1337674769396,20.7911
1337674829396,20.8031
1337674889396,20.7871
1337674949396,20.7919
1337675009396,20.8347
1337675069396,20.7792
1337675129396,20.7901
1337675189396,20.8048
1337675249396,20.7641
1337675309396,20.8208
1337675369396,20.7658
1337675429396,20.8356
1337675489396,20.7413
1337675549396,20.7626
1337675609396,20.7585
1337675669396,20.7901
1337675729396,20.7804
1337675789396,20.7961
1337675849396,20.7498
1337675909396,20.7787
1337675969396,20.7081
1337676029396,20.8534
1337676089396,20.8050
1337676149396,20.7826
1337676209396,20.7783
1337676269396,20.7335
1337676329396,20.7179
1337676389396,20.7732
1337676449396,20.7233
1337676509396,20.7955
1337676569396,20.6824
1337676629396,20.7324
1337676689396,20.7151
1337676749396,20.7845
1337676809396,20.7534
1337676869396,20.7386
1337676929396,20.7472
1337676989396,20.7983
1337677049396,20.7867
1337677109396,20.7659
1337677169396,20.7894
1337677229405,20.7733
1337677289405,20.8200
1337677349405,20.7642
1337677409405,20.7276
1337677469405,20.7889
1337677529405,20.7840
1337677589405,20.7352
1337677649405,20.7758
1337677709405,20.7805
1337677769405,20.8348
1337677829405,20.8160
1337677889405,20.8485
1337677949405,20.8002
1337678009405,20.7718
1337678069405,20.7719
1337678129405,20.7421
1337678189405,20.7928
1337678249405,20.8137
1337678309405,20.7833
1337678369405,20.8271
1337678429405,20.7902
1337678489405,20.8194
1337678549405,20.7649
1337678609405,20.8216
1337678669405,20.7669
1337678729405,20.7359
1337678789405,20.7570
1337678849405,20.7650
1337678909405,20.7637
1337678969405,20.7269
1337679029405,20.8079
1337679089405,20.8220
1337679149405,20.7944
1337679209405,20.7921
1337679269405,20.8410
1337679329405,20.6735
1337679389405,20.7408
1337679449405,20.7564
1337679509405,20.7248
1337679569405,20.7131
1337679629405,20.7615
1337679689405,20.6654
1337679749405,20.7278
1337679809405,20.6973
1337679869405,20.6887
1337679929405,20.6738
1337679989405,20.7582
1337680049405,20.7512
1337680109405,20.6934
1337680169405,20.6887
1337680229405,20.7646
1337680289405,20.7056
1337680349405,20.7142
1337680409405,20.7070
1337680469405,20.7218
1337680529405,20.7813
1337680589405,20.7744
1337680649405,20.7423
1337680709405,20.7489
1337680769405,20.7394
1337680829415,20.7154
1337680889415,20.7349
1337680949415,20.7644
1337681009415,20.7226
1337681069415,20.7207
1337681129415,20.7372
1337681189415,20.7451
1337681249415,20.7444
1337681309415,20.7687
1337681369415,20.6415
1337681429415,20.7331
1337681489415,20.7506
1337681549415,20.7028
1337681609415,20.6759
1337681669415,20.7190
1337681729415,20.7836
1337681789415,20.7226
1337681849415,20.7373
1337681909415,20.7498
1337681969415,20.7177
1337682029415,20.7782
1337682089415,20.7641
1337682149415,20.7349
1337682209415,20.7637
1337682269415,20.7391
1337682329415,20.8035
1337682389415,20.8041
1337682449415,20.7192
1337682509415,20.7732
1337682569415,20.7469
1337682629415,20.7125
1337682689415,20.7434
1337682749415,20.7493
1337682809415,20.7188
1337682869415,20.7178
1337682929415,20.7393
1337682989415,20.7813
1337683049415,20.7522
1337683109415,20.7252
1337683169415,20.7572
1337683229415,20.7341
1337683289415,20.7351
1337683349415,20.7773
1337683409415,20.7848
1337683469415,20.7124
1337683529415,20.7729
1337683589415,20.8005
1337683649415,20.7859
1337683709415,20.7856
1337683769415,20.8467
1337683829415,20.7778
1337683889415,20.7728
1337683949415,20.6897
1337684009415,20.7061
1337684069415,20.7043
1337684129415,20.8201
1337684189415,20.7405
1337684249415,20.8313
1337684309415,20.7421
1337684369415,20.7901
1337684429425,20.8149
1337684489425,20.7806
1337684549425,20.7953
1337684609425,20.7913
1337684669425,20.7785
1337684729425,20.7445
1337684789425,20.7720
1337684849425,20.7984
1337684909425,20.8180
1337684969425,20.8146
1337685029425,20.8193
1337685089425,20.7475
1337685149425,20.7934
1337685209425,20.8104
1337685269425,20.7665
1337685329425,20.7534
1337685389425,20.7412
1337685449425,20.8055
1337685509425,20.8008
1337685569425,20.8278
1337685629425,20.8311
1337685689425,20.7931
1337685749425,20.7357
1337685809425,20.8259
1337685869425,20.7683
1337685929425,20.8179
1337685989425,20.7869
1337686049425,20.7966
1337686109425,20.8515
1337686169425,20.8159
1337686229425,20.7681
1337686289425,20.7897
1337686349425,20.7432
1337686409425,20.7600
1337686469425,20.7468
1337686529425,20.7917
1337686589425,20.8090
1337686649425,20.8189
1337686709425,20.8089
1337686769425,20.7871
1337686829425,20.7945
1337686889425,20.7966
1337686949425,20.7796
1337687009425,20.7885
1337687069425,20.8369
1337687129425,20.7465
1337687189425,20.7470
1337687249425,20.7574
1337687309425,20.7546
1337687369425,20.7755
1337687429425,20.7409
1337687489425,20.7326
1337687549425,20.7642
1337687609425,20.7125
1337687669425,20.8058
1337687729425,20.8311
1337687789425,20.7884
1337687849425,20.7361
1337687909425,20.7751
1337687969425,20.7583
1337688029434,20.7969
1337688089434,20.8161
1337688149434,20.7306
1337688209434,20.7114
1337688269434,20.7625
1337688329434,20.7586
1337688389434,20.8055
1337688449434,20.7736
1337688509434,20.7721
1337688569434,20.8045
1337688629434,20.7241
1337688689434,20.7955
1337688749434,20.8241
1337688809434,20.8125
1337688869434,20.7660
1337688929434,20.7931
1337688989434,20.7939
1337689049434,20.8000
1337689109434,20.7599
1337689169434,20.7876
1337689229434,20.7640
1337689289434,20.7720
1337689349434,20.7698
1337689409434,20.7246
1337689469434,20.7363
1337689529434,20.7692
1337689589434,20.7600
1337689649434,20.8033
1337689709434,20.7688
1337689769434,20.7598
1337689829434,20.7145
1337689889434,20.7414
1337689949434,20.7291
1337690009434,20.6756
1337690069434,20.7318
1337690129434,20.7323
1337690189434,20.7273
1337690249434,20.7786
1337690309434,20.7715
1337690369434,20.7358
1337690429434,20.7712
1337690489434,20.8169
1337690549434,20.8157
1337690609434,20.7602
1337690669434,20.8251
1337690729434,20.7998
1337690789434,20.7933
1337690849434,20.7748
1337690909434,20.7356
1337690969434,20.7784
1337691029434,20.7558
1337691089434,20.7537
1337691149434,20.7544
1337691209434,20.7737
1337691269434,20.7580
1337691329434,20.7500
1337691389434,20.7809
1337691449434,20.7312
1337691509434,20.7354
1337691569434,20.7867
1337691629444,20.7722
1337691689444,20.7214
1337691749444,20.7161
1337691809444,20.7342
1337691869444,20.7465
1337691929444,20.7084
1337691989444,20.7494
1337692049444,20.7038
1337692109444,20.6983
1337692169444,20.7260
1337692229444,20.6956
1337692289444,20.6941
1337692349444,20.6972
1337692409444,20.6897
1337692469444,20.7073
1337692529444,20.6387
1337692589444,20.7126
1337692649444,20.7228
1337692709444,20.7317
1337692769444,20.7812
1337692829444,20.7442
1337692889444,20.7799
1337692949444,20.7558
1337693009444,20.7216
1337693069444,20.7670
1337693129444,20.6773
1337693189444,20.7473
1337693249444,20.8215
1337693309444,20.7731
1337693369444,20.8052
1337693429444,20.7767
1337693489444,20.7554
1337693549444,20.7843
1337693609444,20.7363
1337693669444,20.7769
1337693729444,20.7215
1337693789444,20.7510
1337693849444,20.7366
1337693909444,20.7134
1337693969444,20.7353
1337694029444,20.7524
1337694089444,20.7165
1337694149444,20.7334
1337694209444,20.7250
1337694269444,20.7611
1337694329444,20.7604
1337694389444,20.7073
1337694449444,20.6996
1337694509444,20.7433
1337694569444,20.7083
1337694629444,20.7292
1337694689444,20.7609
1337694749444,20.7252
1337694809444,20.6838
1337694869444,20.7312
1337694929444,20.6331
1337694989444,20.6756
1337695049444,20.6799
1337695109444,20.6893
1337695169444,20.6995
1337695229453,20.7310
1337695289453,20.7189
1337695349453,20.6909
1337695409453,20.6586
1337695469453,20.7353
1337695529453,20.7574
1337695589453,20.6835
1337695649453,20.7542
1337695709453,20.7053
1337695769453,20.7329
1337695829453,20.7772
1337695889453,20.7614
1337695949453,20.6867
1337696009453,20.6993
1337696069453,20.7013
1337696129453,20.7502
1337696189453,20.6967
1337696249453,20.7218
1337696309453,20.6938
1337696369453,20.7267
1337696429453,20.7644
1337696489453,20.7849
1337696549453,20.7450
1337696609453,20.7176
1337696669453,20.7246
1337696729453,20.7551
1337696789453,20.6898
1337696849453,20.6681
1337696909453,20.7508
1337696969453,20.7204
1337697029453,20.6295
1337697089453,20.7175
1337697149453,20.6459
1337697209453,20.6737
1337697269453,20.6435
1337697329453,20.6290
1337697389453,20.6795
1337697449453,20.6678
1337697509453,20.7071
1337697569453,20.6792
1337697629453,20.7047
1337697689453,20.7719
1337697749453,20.7916
1337697809453,20.7290
1337697869453,20.7043
1337697929453,20.6984
1337697989453,20.7146
1337698049453,20.6513
1337698109453,20.6911
1337698169453,20.7945
1337698229453,20.6936
1337698289453,20.7064
1337698349453,20.6953
1337698409453,20.6608
1337698469453,20.6926
1337698529453,20.6764
1337698589453,20.6147
1337698649453,20.6910
1337698709453,20.6455
1337698769453,20.5966
1337698829463,20.6496
1337698889463,20.7077
1337698949463,20.6667
1337699009463,20.7257
1337699069463,20.6584
1337699129463,20.6479
1337699189463,20.7368
1337699249463,20.7562
1337699309463,20.6792
1337699369463,20.6725
1337699429463,20.7915
1337699489463,20.6752
1337700029463,20.6907
1337700089463,20.5833
1337700149463,20.6435
1337700209463,20.6400
1337700269463,20.5877
1337700329463,20.6572
1337700389463,20.6139
1337700449463,20.6380
1337700509463,20.6750
1337700569463,20.6049
1337700629463,20.5536
1337700689463,20.6419
1337700749463,20.5897
1337700809463,20.6847
1337700869463,20.6539
1337700929463,20.6380
1337700989463,20.6118
1337701049463,20.6246
1337701109463,20.6808
1337701169463,20.6780
1337701229463,20.6942
1337701289463,20.6764
1337701349463,20.6258
1337701409463,20.6732
1337701469463,20.5965
1337701529463,20.6286
1337701589463,20.6220
1337701649463,20.6524
1337701709463,20.6997
1337701769463,20.6898
1337701829463,20.6314
1337701889463,20.5980
1337701949463,20.6063
1337702009463,20.7071
1337702069463,20.6486
1337702129463,20.6390
1337702189463,20.6078
1337702249463,20.6648
1337702309463,20.6999
1337702369463,20.5903
1337702429473,20.7187
1337702489473,20.7232
1337702549473,20.6422
1337702609473,20.5941
1337702669473,20.5995
1337702729473,20.6782
1337702789473,20.6257
1337702849473,20.6752
1337702909473,20.6275
1337702969473,20.6321
1337703029473,20.6540
1337703089473,20.6099
1337703149473,20.6575
1337703209473,20.6061
1337703269473,20.5841
1337703329473,20.6535
1337703389473,20.6622
1337703449473,20.6229
1337703509473,20.6371
1337703569473,20.6167
1337703629473,20.6422
1337703689473,20.6650
1337703749473,20.7299
1337703809473,20.6789
1337703869473,20.7037
1337703929473,20.6938
1337703989473,20.6753
1337704049473,20.6809
1337704109473,20.7283
1337704169473,20.6579
1337704229473,20.5935
1337704289473,20.6726
1337704349473,20.6404
1337704409473,20.6357
1337704469473,20.5743
1337704529473,20.5956
1337704589473,20.6098
1337704649473,20.6555
1337704709473,20.6569
1337704769473,20.6651
1337704829473,20.6301
1337704889473,20.7097
1337704949473,20.6674
1337705009473,20.6638
1337705069473,20.6236
1337705129473,20.6528
1337705189473,20.6488
1337705249473,20.6542
1337705309473,20.6133
1337705369473,20.6761
1337705429473,20.6914
1337705489473,20.6664
1337705549473,20.6190
1337705609473,20.6219
1337705669473,20.5819
1337705729473,20.5877
1337705789473,20.5742
1337705849473,20.6581
1337705909473,20.6322
1337705969473,20.6299
1337706029483,20.7305
1337706089483,20.6278
1337706149483,20.6590
1337706209483,20.6403
1337706269483,20.6101
1337706329483,20.6964
1337706389483,20.7016
1337706449483,20.6014
1337706509483,20.5950
1337706569483,20.6706
1337706629483,20.6774
1337706689483,20.6623
1337706749483,20.6841
1337706809483,20.6725
1337706869483,20.6289
1337706929483,20.6749
1337706989483,20.6478
1337707049483,20.6343
1337707109483,20.6514
1337707169483,20.6005
1337707229483,20.6466
1337707289483,20.6353
1337707349483,20.6039
1337707409483,20.6905
1337707469483,20.6443
1337707529483,20.5774
1337707589483,20.6673
1337707649483,20.6259
1337707709483,20.5865
1337707769483,20.6104
1337707829483,20.6227
1337707889483,20.5919
1337707949483,20.6838
1337708009483,20.6808
1337708069483,20.6651
1337708129483,20.6643
1337708189483,20.6809
1337708249483,20.6931
1337708309483,20.6767
1337708369483,20.6603
1337708429483,20.6477
1337708489483,20.5995
1337708549483,20.6606
1337708609483,20.7015
1337708669483,20.6610
1337708729483,20.6359
1337708789483,20.6105
1337708849483,20.5962
1337708909483,20.6688
1337708969483,20.6117
1337709029483,20.6288
1337709089483,20.5781
1337709149483,20.5879
1337709209483,20.6283
1337709269483,20.6273
1337709329483,20.5965
1337709389483,20.5860
1337709449483,20.5688
1337709509483,20.6144
1337709569483,20.6143
1337709629493,20.6265
1337709689493,20.6503
1337709749493,20.6306
1337709809493,20.6313
1337709869493,20.6619
1337709929493,20.6332
1337709989493,20.6802
1337710049493,20.6797
1337710109493,20.6665
1337710169493,20.6354
1337710229493,20.6155
1337710289493,20.6568
1337710349493,20.5626
1337710409493,20.6208
1337710469493,20.5638
1337710529493,20.6190
1337710589493,20.5594
1337710649493,20.5431